• In Germany
  • List of Countries
  • For 7 days
  • Water Temperature
  • Satellite Maps
  • Weather Map
  • Weather Widgets
  • user-avatar
    Login

    Hourly Weather Patmos

    Today, 15 December, Friday

    Time Temperature Precipitation Wind Pressure Humidity
    00:00 +12°C° 0 mm 4 mps 760 mmHg 94%
    01:00 +12°C° 0 mm 4 mps 760 mmHg 93%
    02:00 +13°C° 0 mm 5 mps 760 mmHg 92%
    03:00 +13°C° 0 mm 4 mps 760 mmHg 92%
    04:00 +13°C° 0 mm 4 mps 760 mmHg 93%
    05:00 +13°C° 0 mm 3 mps 761 mmHg 93%
    06:00 +13°C° 0 mm 4 mps 761 mmHg 93%
    07:00 +13°C° 0 mm 4 mps 761 mmHg 93%
    08:00 +13°C° 0 mm 4 mps 761 mmHg 93%
    09:00 +14°C° 0 mm 4 mps 761 mmHg 85%
    10:00 +16°C° 0 mm 5 mps 761 mmHg 77%
    11:00 +19°C° 0 mm 5 mps 761 mmHg 69%
    12:00 +17°C° 0 mm 5 mps 761 mmHg 70%
    13:00 +17°C° 0 mm 6 mps 761 mmHg 70%
    14:00 +17°C° 0 mm 6 mps 761 mmHg 70%
    15:00 +17°C° 0 mm 7 mps 761 mmHg 75%
    16:00 +16°C° 0 mm 7 mps 761 mmHg 80%
    17:00 +15°C° 0 mm 8 mps 761 mmHg 86%
    18:00 +15°C° 0.1 mm 8 mps 761 mmHg 86%
    19:00 +15°C° 0.1 mm 8 mps 761 mmHg 87%
    20:00 +15°C° 0.1 mm 9 mps 761 mmHg 88%
    21:00 +15°C° 0.1 mm 9 mps 761 mmHg 88%
    22:00 +15°C° 0.1 mm 8 mps 761 mmHg 87%
    23:00 +15°C° 0.1 mm 8 mps 761 mmHg 87%

    Tomorrow, 16 December, Saturday

    Time Temperature Precipitation Wind Pressure Humidity
    00:00 +13°C° 0.1 mm 8 mps 761 mmHg 88%
    01:00 +13°C° 0.1 mm 8 mps 762 mmHg 89%
    02:00 +12°C° 0.1 mm 8 mps 762 mmHg 90%
    03:00 +12°C° 0.1 mm 7 mps 761 mmHg 91%
    04:00 +12°C° 0.1 mm 7 mps 761 mmHg 92%
    05:00 +12°C° 0.1 mm 7 mps 761 mmHg 92%
    06:00 +12°C° 0.1 mm 7 mps 761 mmHg 91%
    07:00 +14°C° 0.1 mm 7 mps 761 mmHg 90%
    08:00 +14°C° 0.1 mm 6 mps 761 mmHg 89%
    09:00 +15°C° 0 mm 7 mps 761 mmHg 83%
    10:00 +17°C° 0 mm 8 mps 761 mmHg 77%
    11:00 +18°C° 0 mm 8 mps 761 mmHg 70%
    12:00 +18°C° 0 mm 9 mps 761 mmHg 69%
    13:00 +18°C° 0 mm 9 mps 760 mmHg 68%
    14:00 +19°C° 0 mm 9 mps 759 mmHg 67%
    15:00 +18°C° 0 mm 10 mps 759 mmHg 73%
    16:00 +17°C° 0 mm 10 mps 759 mmHg 79%
    17:00 +16°C° 0 mm 10 mps 759 mmHg 85%
    18:00 +16°C° 1.1 mm 11 mps 759 mmHg 86%
    19:00 +16°C° 1.1 mm 11 mps 760 mmHg 87%
    20:00 +14°C° 1.1 mm 12 mps 760 mmHg 88%
    21:00 +14°C° 0.4 mm 11 mps 760 mmHg 88%
    22:00 +14°C° 0.4 mm 11 mps 760 mmHg 88%
    23:00 +14°C° 0.4 mm 11 mps 760 mmHg 88%

    Day after tomorrow, 17 December, Sunday

    Time Temperature Precipitation Wind Pressure Humidity
    00:00 +13°C° 0 mm 11 mps 759 mmHg 89%
    01:00 +13°C° 0 mm 11 mps 759 mmHg 90%
    02:00 +13°C° 0 mm 12 mps 759 mmHg 90%
    03:00 +13°C° 0.1 mm 12 mps 758 mmHg 92%
    04:00 +13°C° 0.1 mm 11 mps 758 mmHg 93%
    05:00 +13°C° 0.1 mm 11 mps 758 mmHg 94%
    06:00 +14°C° 0.1 mm 11 mps 758 mmHg 92%
    07:00 +14°C° 0.1 mm 11 mps 758 mmHg 90%
    08:00 +14°C° 0.1 mm 11 mps 758 mmHg 89%
    09:00 +16°C° 0.2 mm 11 mps 758 mmHg 83%
    10:00 +17°C° 0.2 mm 10 mps 758 mmHg 77%
    11:00 +18°C° 0.2 mm 10 mps 758 mmHg 71%
    12:00 +18°C° 0.3 mm 10 mps 758 mmHg 72%
    13:00 +18°C° 0.3 mm 10 mps 758 mmHg 72%
    14:00 +18°C° 0.3 mm 9 mps 758 mmHg 72%
    15:00 +17°C° 0.6 mm 9 mps 758 mmHg 76%
    16:00 +17°C° 0.6 mm 8 mps 758 mmHg 80%
    17:00 +16°C° 0.6 mm 7 mps 758 mmHg 84%
    18:00 +15°C° 0.3 mm 6 mps 759 mmHg 86%
    19:00 +15°C° 0.3 mm 6 mps 759 mmHg 88%
    20:00 +14°C° 0.3 mm 5 mps 760 mmHg 91%
    21:00 +14°C° 0 mm 5 mps 760 mmHg 91%
    22:00 +14°C° 0 mm 4 mps 760 mmHg 92%
    23:00 +13°C° 0 mm 4 mps 761 mmHg 92%

    18 December, Monday

    Time Temperature Precipitation Wind Pressure Humidity
    00:00 +13°C° 0 mm 4 mps 761 mmHg 92%
    01:00 +13°C° 0 mm 3 mps 761 mmHg 92%
    02:00 +13°C° 0 mm 3 mps 761 mmHg 92%
    03:00 +12°C° 0 mm 3 mps 761 mmHg 92%
    04:00 +12°C° 0 mm 3 mps 761 mmHg 92%
    05:00 +12°C° 0 mm 3 mps 761 mmHg 92%
    06:00 +12°C° 0 mm 3 mps 761 mmHg 91%
    07:00 +12°C° 0 mm 4 mps 761 mmHg 90%
    08:00 +12°C° 0 mm 4 mps 761 mmHg 89%
    09:00 +14°C° 0 mm 4 mps 762 mmHg 79%
    10:00 +15°C° 0 mm 5 mps 762 mmHg 70%
    11:00 +16°C° 0 mm 5 mps 762 mmHg 60%
    12:00 +16°C° 0.1 mm 6 mps 762 mmHg 60%
    13:00 +16°C° 0.1 mm 6 mps 761 mmHg 60%
    14:00 +15°C° 0.1 mm 7 mps 761 mmHg 59%
    15:00 +13°C° 0.1 mm 8 mps 762 mmHg 66%
    16:00 +12°C° 0.1 mm 8 mps 762 mmHg 73%
    17:00 +11°C° 0.1 mm 9 mps 762 mmHg 79%
    18:00 +10°C° 0 mm 9 mps 763 mmHg 79%
    19:00 +9°C° 0 mm 8 mps 763 mmHg 80%
    20:00 +9°C° 0 mm 8 mps 764 mmHg 80%
    21:00 +7°C° 0 mm 8 mps 764 mmHg 81%
    22:00 +8°C° 0 mm 7 mps 765 mmHg 83%
    23:00 +8°C° 0 mm 7 mps 765 mmHg 84%

    19 December, Tuesday

    Time Temperature Precipitation Wind Pressure Humidity
    00:00 +6°C° 0 mm 7 mps 765 mmHg 86%
    01:00 +6°C° 0 mm 7 mps 765 mmHg 87%
    02:00 +5°C° 0 mm 7 mps 765 mmHg 89%
    03:00 +5°C° 0 mm 7 mps 766 mmHg 90%
    04:00 +5°C° 0 mm 7 mps 766 mmHg 90%
    05:00 +4°C° 0 mm 7 mps 766 mmHg 91%
    06:00 +4°C° 0 mm 7 mps 766 mmHg 91%
    07:00 +4°C° 0 mm 7 mps 766 mmHg 91%
    08:00 +3°C° 0 mm 7 mps 767 mmHg 90%
    09:00 +5°C° 0 mm 7 mps 767 mmHg 82%
    10:00 +6°C° 0 mm 7 mps 767 mmHg 74%
    11:00 +9°C° 0 mm 7 mps 767 mmHg 65%
    12:00 +10°C° 0 mm 7 mps 767 mmHg 62%
    13:00 +10°C° 0 mm 8 mps 767 mmHg 58%
    14:00 +11°C° 0 mm 8 mps 766 mmHg 55%
    15:00 +10°C° 0 mm 8 mps 766 mmHg 59%
    16:00 +9°C° 0 mm 8 mps 766 mmHg 62%
    17:00 +7°C° 0 mm 8 mps 766 mmHg 66%
    18:00 +6°C° 0 mm 8 mps 766 mmHg 68%
    19:00 +6°C° 0 mm 8 mps 767 mmHg 70%
    20:00 +5°C° 0 mm 8 mps 767 mmHg 71%
    21:00 +5°C° 0 mm 8 mps 767 mmHg 73%
    22:00 +4°C° 0 mm 8 mps 767 mmHg 75%
    23:00 +4°C° 0 mm 7 mps 767 mmHg 77%

    20 December, Wednesday

    Time Temperature Precipitation Wind Pressure Humidity
    00:00 +4°C° 0 mm 8 mps 766 mmHg 77%
    01:00 +2°C° 0 mm 8 mps 766 mmHg 77%
    02:00 +2°C° 0 mm 8 mps 766 mmHg 78%
    03:00 +2°C° 0 mm 8 mps 766 mmHg 78%
    04:00 +2°C° 0 mm 8 mps 766 mmHg 78%
    05:00 +1°C° 0 mm 8 mps 766 mmHg 78%
    06:00 +1°C° 0 mm 8 mps 766 mmHg 77%
    07:00 +2°C° 0 mm 8 mps 766 mmHg 76%
    08:00 +2°C° 0 mm 8 mps 766 mmHg 75%
    09:00 +4°C° 0 mm 8 mps 766 mmHg 69%
    10:00 +6°C° 0 mm 8 mps 766 mmHg 64%
    11:00 +9°C° 0 mm 8 mps 767 mmHg 58%
    12:00 +10°C° 0 mm 8 mps 766 mmHg 55%
    13:00 +11°C° 0 mm 8 mps 766 mmHg 53%
    14:00 +12°C° 0 mm 8 mps 765 mmHg 50%
    15:00 +11°C° 0 mm 8 mps 765 mmHg 53%
    16:00 +10°C° 0 mm 8 mps 765 mmHg 57%
    17:00 +9°C° 0 mm 8 mps 765 mmHg 61%
    18:00 +7°C° 0 mm 8 mps 765 mmHg 62%
    19:00 +7°C° 0 mm 8 mps 765 mmHg 62%
    20:00 +7°C° 0 mm 8 mps 766 mmHg 63%
    21:00 +6°C° 0 mm 8 mps 766 mmHg 64%
    22:00 +6°C° 0 mm 9 mps 766 mmHg 66%
    23:00 +6°C° 0 mm 9 mps 766 mmHg 67%
    Show more